Regional Weather Roundup
Issued by NWS

Home | Current Version | Previous Version | Text Only | Print | Product List | Glossary On
Versions: 1 2 3 4 5 6 7 8 9 10 11 12 13 14 15 16 17 18 19 20 21 22 23 24 25 26 27 28 29 30 31 32 33 34 35 36 37 38 39 40 41 42 43 44 45 46 47 48 49 50
000
ASUS43 KDTX 152310
RWRMI
MICHIGAN HOURLY REGIONAL WEATHER ROUNDUP
NATIONAL WEATHER SERVICE DETROIT/PONTIAC MI
600 PM EST MON JAN 15 2018

NOTE: "FAIR" INDICATES FEW OR NO CLOUDS BELOW 12,000 FEET WITH NO
SIGNIFICANT WEATHER AND/OR OBSTRUCTION TO VISIBILITY.

MIZ047>049-052>055-059>063-066>070-074>076-081>083-160000-
SOUTHEAST LOWER MICHIGAN

CITY           SKY/WX    TMP DP  RH WIND       PRES   REMARKS
ADRIAN         LGT SNOW  20  17  88 SE3       30.23R FOG
ALMA           FLURRIES  16  14  93 NE7       30.25S WCI   6
ANN ARBOR      CLOUDY    19  15  84 E3        30.22S
BAD AXE        LGT SNOW  18  15  89 SE3       30.29R
CARO           FLURRIES  17  13  84 E5        30.27R WCI  10
DETROIT CITY   LGT SNOW  20  17  88 SE5       30.25S FOG     WCI  13
DETROIT        FLURRIES  21  17  84 E3        30.25S
FLINT          LGT SNOW  19  14  81 E8        30.24R WCI   9
GROSSE ILE     LGT SNOW  22  19  88 SE3       30.24S
HILLSDALE      FLURRIES  19  16  86 CALM      30.18R
HOWELL         LGT SNOW  19  17  93 CALM      30.21S

CITY           SKY/WX    TMP DP  RH WIND       PRES   REMARKS
JACKSON        LGT SNOW  19  15  84 E5        30.20S FOG     WCI  12
LAMBERTVILLE   FLURRIES  22  19  86 CALM      30.24R
LANSING        LGT SNOW  19  16  88 E5        30.23R FOG     WCI  12
LAPEER         FLURRIES  18  14  86 E3        30.25S
MASON          LGT SNOW  20  15  79 CALM      30.21S
MONROE         FLURRIES  22  18  85 SE3       30.24R
MT. CLEMENS    FLURRIES  20  20  99 SE7       30.24S WCI  11
PONTIAC        LGT SNOW  19  17  92 SE5       30.21R FOG     WCI  12
PORT HOPE        N/A     20  16  84 SE10      30.28S WCI   9
PORT HURON     LGT SNOW  19  16  86 SE5       30.28R WCI  13
TRI CITIES     LGT SNOW  18  15  88 E8        30.27R FOG     WCI   8
MIDLAND        LGT SNOW  18  14  86 NE6       30.27S WCI   9
TROY           LGT SNOW  21  18  88 CALM      30.26S
SAGINAW HB     LGT SNOW  19  16  86 E5        30.27S WCI  13
$$
MIZ043>046-050>051-056>058-064>065-071>073-077>080-160000-
SOUTHWEST LOWER MICHIGAN

CITY           SKY/WX    TMP DP  RH WIND       PRES   REMARKS
BATTLE CREEK   LGT SNOW  20  16  84 SE5       30.19R FOG     WCI  13
BENTON HARBOR  LGT SNOW  23  18  81 SE6       30.20R WCI  16
BIG RAPIDS     LGT SNOW  17  11  78 E5        30.22R WCI  10
COLDWATER      LGT SNOW  22  19  89 SE3       30.19R
FREMONT        FLURRIES  19  10  70 E7        30.23R WCI   9
HOLLAND        CLOUDY    20  16  84 E6        30.22R WCI  12
GRAND RAPIDS   LGT SNOW  19  14  81 E7        30.22R WCI  10
IONIA          LGT SNOW  19  16  89 E3        30.22R
KALAMAZOO      LGT SNOW  21  16  81 CALM      30.20R
LUDINGTON      CLOUDY    18  13  80 E5        30.24R WCI  11
MARSHALL       FLURRIES  19  15  84 CALM      30.20R
MOUNT PLEASANT LGT SNOW  18  13  82 NE5       30.25R WCI  11
MUSKEGON       LGT SNOW  20  13  74 E7        30.23R WCI  11
SOUTH HAVEN    LGT SNOW  22  18  83 E5        30.20S WCI  16
$$
MIZ016>042-160000-
NORTHERN LOWER MICHIGAN

CITY           SKY/WX    TMP DP  RH WIND       PRES   REMARKS
ALPENA         SNOW      20  19  96 E9        30.31S VSB 1/2 WCI   9
BEAVER ISLAND  LGT SNOW  20  18  89 E10G17    30.33R WCI   9
BELLAIRE       LGT SNOW  19  17  90 CALM      30.30R
CADILLAC       LGT SNOW  15  11  87 E9        30.20S WCI   3
CHARLEVOIX     CLOUDY    20  15  79 NE3       30.33R
FRANKFORT      LGT SNOW  20  16  84 E3        30.28R
GAYLORD        LGT SNOW  17  14  88 VRB3      30.24R FOG
GRAYLING       LGT SNOW  16  11  82 E5        30.25S WCI   9
HARBOR SPRINGS CLOUDY    20  14  77 E7        30.30R WCI  11
HOUGHTON LAKE  LGT SNOW  16  12  84 E8        30.24S FOG     WCI   5
MANISTEE       FLURRIES  16  12  84 E7        30.26R WCI   6
OSCODA         LGT SNOW  19  16  88 S3        30.29S
PELLSTON       CLOUDY    20  14  77 E8        30.32R WCI  10
ROGERS CITY    LGT SNOW  20  18  90 SE6       30.33R WCI  13
TRAVERSE CITY  FLURRIES  19  12  74 E5        30.28R WCI  12
$$
MIZ007>008-015-160000-
EASTERN UPPER MICHIGAN

CITY           SKY/WX    TMP DP  RH WIND       PRES   REMARKS
KINROSS        FLURRIES  16  12  86 E15       30.37R WCI   1
MACKINAC ISLAN LGT SNOW  18  15  88 E25G35    30.33R WCI   0
NEWBERRY       LGT SNOW  16  15  95 NE12G18   30.35R WCI   3
S. S. MARIE    CLOUDY    18  10  71 E8G18     30.39R WCI   8
MUNISING         N/A     16  15  96 N3        30.37R
$$
MIZ004>006-011>014-085-160000-
CENTRAL UPPER MICHIGAN

CITY           SKY/WX    TMP DP  RH WIND       PRES   REMARKS
MANISTIQUE     FLURRIES  18  17  94 NE6       30.34R WCI  10
ESCANABA       LGT SNOW  18  16  93 NE7       30.34R FOG     WCI   8
MENOMINEE      LGT SNOW  20  17  88 NE9       30.30R FOG     WCI   9
SAWYER-GWINN   CLOUDY    14  10  85 NE7       30.32R WCI   4
$$
MIZ001>003-009>011-084-160000-
WESTERN UPPER MICHIGAN

CITY           SKY/WX    TMP DP  RH WIND       PRES   REMARKS
IRON MOUNTAIN  CLOUDY    18  13  80 NE5       30.28R WCI  11
HOUGHTON       MOCLDY    20  12  71 NE8       30.35R WCI  10
COPPER HARBOR    N/A     22  18  85 CALM      30.40R
IRONWOOD       CLOUDY    18  14  84 CALM      30.34R
$$

ABBREVIATIONS USED IN REMARKS
   TC - TEMPERATURE IN CELSIUS
  WCI - WIND CHILL INDEX
   HX - HEAT INDEX
  VSB - VISIBILITY





USA.gov is the U.S. government's official web portal to all federal, state and local government web resources and services.